Wind_Speed
20 20 18 17 17 17 20 22 23 26 28 29 25 25 23 25 25 28 27 29 33 35 32 28 23 19 18 19 16 17 18 17 19 20 22 25 26 27 30 34 37 39 42 41
22 21 19 17 18 19 21 22 22 24 27 29 34 26 29 30 29 27 29 30 31 31 27 24 20 21 19 20 16 17 19 21 24 25 24 26 25 27 29 33 34 37 39 40
19 19 18 17 22 19 21 22 18 13 17 18 24 30 29 26 25 27 24 23 29 26 28 29 25 20 19 19 17 18 18 20 22 21 21 22 22 24 27 30 33 37 40 42
8 12 15 19 21 17 15 17 22 16 18 18 19 24 18 22 27 28 27 26 24 27 23 22 19 19 21 19 18 19 21 22 22 22 23 24 25 27 29 31 35 39 41 41
8 12 16 20 18 18 22 22 20 24 23 26 25 30 24 26 27 26 21 23 24 29 26 22 21 22 22 19 19 19 22 23 24 25 26 27 29 30 31 33 37 41 41 45
9 15 18 17 18 17 19 23 24 27 27 30 28 30 28 30 31 31 23 19 28 24 21 19 19 23 22 19 20 20 23 25 24 25 26 28 29 30 31 34 39 42 43 48
12 14 18 19 19 20 23 23 28 32 34 35 31 31 25 28 26 29 25 16 22 20 22 25 24 23 19 19 20 20 24 25 23 24 27 28 27 29 33 36 40 40 43 49
12 10 15 19 22 23 26 26 27 35 34 31 30 30 27 26 24 25 18 18 23 23 23 21 22 23 19 20 22 21 24 24 22 25 25 25 27 31 34 35 38 40 46 54
21 19 19 22 23 28 25 23 30 32 33 34 30 30 26 21 23 25 20 23 24 21 21 20 24 22 20 19 22 22 24 25 23 23 23 25 29 31 33 36 40 42 48 55
23 26 24 28 31 30 31 30 29 32 37 33 35 26 18 18 24 18 14 13 15 17 22 24 24 20 20 20 21 21 25 25 22 22 23 25 27 29 34 38 42 44 48 51
24 27 25 25 26 25 29 28 29 30 30 33 27 11 13 15 13 9 14 18 16 17 15 22 22 18 19 20 21 21 22 23 21 21 21 23 26 30 34 38 42 44 45 47
31 34 32 31 29 29 29 27 29 31 24 27 26 9 17 13 12 13 14 14 15 16 19 21 20 18 19 20 20 21 20 21 22 22 22 24 27 30 34 37 40 41 43 45
31 31 32 30 27 29 29 28 28 30 26 21 27 23 18 10 13 16 15 15 17 19 20 22 22 21 21 21 20 21 21 22 23 22 23 24 27 29 32 35 38 40 40 43
33 33 31 31 29 30 28 28 31 30 27 22 22 17 16 12 14 16 15 18 20 22 24 25 26 25 24 23 23 22 24 24 24 24 24 24 26 28 30 32 36 37 37 38
31 31 29 24 26 22 23 27 28 27 19 20 18 18 16 16 16 24 23 22 23 24 25 27 29 28 28 26 25 25 25 27 27 28 28 28 27 27 28 30 33 35 35 35
28 29 25 19 22 30 27 23 22 18 17 19 16 16 22 23 24 30 30 29 27 28 29 29 29 30 30 28 27 27 29 30 31 30 31 30 30 30 28 30 30 32 34 34
29 27 25 22 22 22 17 13 13 19 20 20 21 22 21 25 26 28 33 33 28 30 29 31 30 30 31 30 29 30 30 33 34 33 32 31 30 31 30 29 30 30 31 33
27 24 28 24 20 21 16 14 14 14 21 21 20 18 21 23 25 24 25 22 27 32 33 33 33 33 33 32 32 33 33 34 36 36 36 34 32 32 31 30 29 29 30 30
22 20 22 22 23 16 7 9 10 11 14 14 15 23 14 21 18 21 23 27 28 34 32 33 32 31 30 31 33 35 36 36 36 37 36 37 35 34 34 31 30 29 29 30
20 21 19 16 20 15 13 13 11 14 7 11 20 21 19 16 20 22 27 31 34 34 32 33 33 34 35 36 37 38 39 39 38 38 38 37 39 36 35 33 31 31 29 29
18 20 19 19 18 13 12 12 8 11 12 11 11 15 19 20 21 26 28 31 32 33 35 37 40 42 43 44 42 40 39 39 39 38 40 40 41 40 37 34 32 31 31 29
20 20 18 15 15 11 11 11 11 11 14 16 17 18 18 19 20 25 32 35 37 37 40 41 43 44 44 44 45 45 46 47 45 44 45 43 42 42 40 37 35 33 32 31
20 19 17 16 13 9 9 12 14 15 20 20 18 21 22 22 23 38 42 37 35 35 38 43 47 46 45 42 42 45 44 42 46 47 44 43 42 40 41 39 38 35 34 33
20 19 16 15 15 17 11 15 14 18 18 21 22 22 24 30 34 39 38 38 39 38 42 41 41 42 45 45 42 42 42 41 41 42 44 42 41 41 41 41 39 38 38 35
20 18 15 16 15 13 19 21 18 17 19 21 24 27 30 34 36 36 38 39 40 40 40 40 39 38 38 38 38 39 39 38 38 38 38 38 40 42 44 43 42 41 36 36
20 19 19 14 15 17 16 16 18 19 26 29 28 28 29 31 32 33 34 34 35 36 38 40 41 41 42 42 41 40 41 42 42 42 40 38 38 40 42 42 40 40 40 39
Wind_Direction
233 243 258 271 266 265 270 272 271 277 279 278 263 267 273 285 290 301 310 318 323 324 325 322 333 328 318 323 317 322 325 317 322 320 317 315 315 307 314 313 311 308 305 305
247 250 257 263 269 277 286 283 284 267 275 279 265 262 270 289 299 313 320 317 315 321 321 314 317 320 316 313 313 318 321 327 331 324 317 316 311 306 311 310 310 308 309 310
249 256 259 271 261 282 289 299 288 290 277 285 279 269 276 291 305 313 316 317 320 311 303 310 312 314 310 304 309 318 325 326 327 323 317 314 313 317 313 315 315 316 316 318
259 264 263 263 271 274 276 272 268 293 291 291 286 290 293 300 309 310 304 308 310 327 313 313 312 311 302 301 311 324 329 329 328 326 325 328 323 322 320 321 324 324 324 323
285 282 272 268 269 267 277 281 289 284 289 288 296 297 296 305 312 317 305 304 307 309 299 299 305 302 298 301 316 327 328 332 336 337 335 329 325 324 322 326 328 330 331 330
238 252 272 281 266 256 274 284 282 281 292 289 300 289 290 305 310 312 300 310 311 295 281 284 290 301 296 307 319 326 332 333 333 335 332 330 328 328 328 331 335 334 335 333
281 252 256 266 275 286 288 293 295 286 289 290 288 291 300 307 302 300 299 294 311 290 281 283 285 294 302 314 323 328 333 329 335 332 335 334 333 334 338 338 337 335 336 338
303 296 278 273 281 291 293 291 296 295 296 291 292 297 302 302 299 295 281 285 285 289 299 298 287 298 309 316 322 327 331 330 333 336 339 339 344 346 342 338 336 341 343 347
306 298 294 291 297 302 301 288 290 295 292 292 297 301 297 295 289 291 302 290 274 277 294 299 294 297 306 317 323 326 329 328 335 344 345 348 351 346 341 342 345 347 350 352
299 295 296 289 286 289 293 295 291 292 293 297 301 303 289 286 287 269 291 301 285 286 278 292 293 297 309 315 324 325 329 330 335 345 345 349 349 346 347 349 350 350 354 351
301 298 298 289 288 285 285 283 289 299 293 295 302 327 300 302 311 264 269 277 289 291 274 293 288 294 301 309 319 320 324 323 325 337 340 343 348 349 350 352 352 354 353 351
307 303 304 300 294 288 282 281 286 285 289 286 284 305 301 300 279 279 273 279 288 289 286 284 290 288 294 301 307 308 311 313 315 327 335 342 348 349 350 352 352 353 353 350
305 305 303 299 297 289 281 278 277 277 284 277 280 309 260 281 287 285 282 280 282 288 289 287 286 281 286 293 299 303 301 304 307 313 325 336 342 343 347 349 350 353 352 350
316 314 306 302 301 297 290 279 275 279 282 271 281 280 269 264 275 288 296 296 292 285 287 288 287 284 283 289 295 299 300 296 302 307 316 326 334 339 342 345 346 351 350 350
317 319 316 301 295 297 296 287 278 281 269 273 287 265 259 263 269 280 290 293 290 289 292 291 286 285 282 284 291 297 299 298 297 302 310 318 323 327 335 340 343 347 347 350
328 334 334 318 283 290 297 302 278 261 261 267 274 264 261 259 273 277 277 284 291 295 294 292 289 283 282 276 284 292 297 301 303 304 306 312 315 318 326 332 337 340 343 346
321 329 327 330 326 314 305 294 286 265 268 260 262 267 279 285 289 284 278 278 292 295 298 296 294 288 292 285 285 290 295 296 297 298 301 304 308 312 317 322 327 332 336 341
326 327 325 331 322 318 306 301 283 282 275 275 265 284 279 265 282 286 275 294 296 299 299 299 300 300 294 287 286 289 290 292 295 296 296 298 301 304 308 312 316 323 329 333
329 330 332 331 340 340 338 326 298 299 288 281 279 272 238 265 290 297 301 301 298 302 299 300 298 294 289 285 287 288 291 295 292 294 295 292 295 298 301 304 308 313 320 324
324 326 328 328 336 342 341 328 287 317 329 310 275 245 290 317 285 290 294 290 295 296 300 301 298 295 294 293 294 296 295 294 291 289 289 290 288 290 294 298 301 304 310 316
326 325 320 316 321 330 330 336 337 329 324 314 298 298 305 306 296 297 298 297 299 300 299 299 299 299 297 297 297 296 296 295 296 295 290 288 287 285 287 291 296 296 300 306
319 321 316 311 312 324 327 343 341 341 336 324 315 308 302 304 310 320 322 311 304 303 303 301 300 298 297 297 296 299 300 296 299 301 299 291 285 281 284 288 291 293 293 295
318 317 315 312 303 315 328 332 322 317 327 325 323 314 294 289 302 320 321 315 308 305 304 303 300 297 297 296 297 299 298 296 297 296 294 290 284 282 284 288 289 287 287 288
314 315 302 311 299 279 308 334 308 306 318 330 329 326 316 306 304 308 310 310 308 307 303 303 303 297 295 294 296 296 298 300 296 296 297 293 287 282 280 282 283 285 285 283
311 303 299 303 302 289 266 299 299 312 318 323 320 314 310 307 306 306 306 305 304 303 303 305 307 309 309 305 304 302 300 301 302 298 295 293 290 285 282 281 282 281 279 280
305 310 301 303 300 295 276 273 300 309 317 319 322 323 325 326 325 323 322 317 313 309 308 310 310 305 303 304 306 303 301 301 301 301 297 290 284 283 282 281 279 281 282 278
Height
5883 5884 5884 5885 5886 5887 5887 5886 5885 5884 5881 5878 5880 5879 5878 5875 5874 5873 5870 5868 5864 5861 5857 5855 5854 5851 5850 5848 5844 5841 5839 5837 5832 5828 5825 5820 5815 5811 5808 5804 5801 5797 5792 5786
5881 5881 5883 5883 5882 5882 5881 5880 5880 5878 5876 5875 5874 5874 5873 5871 5870 5869 5867 5865 5860 5856 5854 5851 5850 5848 5847 5844 5841 5838 5836 5831 5827 5823 5819 5816 5811 5808 5803 5800 5796 5790 5783 5774
5878 5880 5880 5880 5880 5880 5878 5877 5877 5874 5871 5870 5868 5869 5870 5869 5866 5865 5864 5862 5858 5854 5849 5847 5846 5844 5843 5841 5838 5835 5833 5829 5825 5820 5816 5812 5807 5802 5799 5794 5788 5781 5773 5764
5878 5877 5878 5877 5877 5876 5875 5873 5872 5871 5868 5866 5866 5864 5865 5863 5861 5860 5859 5856 5853 5850 5845 5844 5843 5840 5838 5837 5834 5831 5828 5824 5819 5814 5809 5803 5799 5795 5791 5785 5778 5772 5764 5757
5877 5875 5873 5872 5873 5872 5872 5870 5868 5866 5864 5861 5861 5858 5858 5857 5854 5852 5851 5849 5846 5844 5841 5841 5839 5837 5835 5832 5828 5826 5823 5818 5812 5807 5801 5798 5793 5788 5783 5777 5772 5765 5756 5748
5873 5871 5870 5870 5869 5867 5866 5865 5863 5860 5858 5856 5857 5854 5853 5849 5848 5846 5844 5843 5840 5837 5836 5836 5835 5832 5830 5827 5823 5820 5816 5812 5807 5801 5797 5793 5788 5783 5778 5772 5764 5756 5748 5739
5871 5869 5867 5866 5866 5864 5862 5859 5856 5853 5852 5850 5848 5845 5847 5842 5841 5839 5839 5838 5835 5832 5831 5830 5830 5827 5824 5821 5818 5815 5812 5808 5802 5797 5792 5787 5783 5778 5771 5764 5757 5750 5742 5731
5867 5866 5864 5863 5861 5859 5856 5854 5852 5844 5843 5842 5841 5838 5838 5837 5835 5834 5833 5832 5830 5829 5827 5824 5822 5820 5817 5816 5813 5810 5807 5802 5797 5792 5788 5784 5778 5771 5766 5760 5753 5744 5734 5719
5861 5861 5859 5856 5854 5852 5850 5848 5846 5840 5837 5834 5835 5834 5833 5830 5829 5829 5826 5821 5823 5824 5822 5819 5817 5815 5813 5811 5809 5806 5802 5798 5792 5787 5783 5778 5772 5767 5763 5756 5746 5736 5725 5711
5857 5854 5854 5850 5848 5847 5842 5840 5838 5836 5829 5827 5827 5827 5825 5825 5823 5822 5821 5820 5819 5819 5818 5815 5813 5809 5807 5806 5803 5801 5798 5794 5788 5782 5778 5774 5770 5765 5758 5750 5740 5730 5718 5709
5850 5848 5847 5843 5840 5837 5835 5833 5831 5828 5826 5822 5822 5825 5821 5821 5818 5817 5817 5817 5816 5814 5812 5810 5808 5805 5803 5800 5797 5795 5793 5790 5786 5781 5776 5771 5765 5759 5753 5744 5736 5725 5716 5708
5843 5838 5836 5835 5833 5830 5827 5825 5823 5820 5820 5818 5817 5822 5819 5816 5815 5814 5812 5811 5810 5809 5807 5805 5802 5801 5799 5796 5794 5792 5789 5785 5782 5777 5772 5766 5761 5755 5748 5740 5732 5723 5714 5706
5838 5834 5829 5826 5825 5822 5819 5818 5815 5813 5812 5813 5812 5815 5812 5812 5811 5810 5808 5806 5806 5804 5802 5800 5798 5796 5795 5793 5790 5787 5784 5781 5777 5773 5768 5762 5756 5751 5745 5738 5730 5721 5713 5706
5829 5826 5821 5818 5814 5811 5810 5808 5805 5803 5804 5806 5808 5808 5807 5807 5807 5804 5803 5802 5800 5798 5796 5794 5792 5791 5788 5786 5784 5781 5779 5775 5771 5768 5763 5758 5752 5747 5741 5735 5727 5718 5712 5706
5824 5819 5813 5809 5806 5803 5801 5799 5798 5797 5799 5799 5801 5800 5801 5801 5802 5800 5799 5798 5795 5792 5789 5787 5786 5784 5782 5780 5778 5775 5772 5769 5766 5761 5757 5753 5748 5743 5737 5731 5724 5716 5710 5705
5819 5813 5808 5804 5800 5798 5797 5793 5791 5793 5795 5795 5795 5797 5795 5795 5795 5795 5793 5791 5789 5786 5782 5779 5778 5777 5775 5773 5771 5768 5766 5762 5758 5754 5750 5746 5743 5738 5732 5726 5720 5715 5709 5703
5815 5810 5806 5802 5797 5793 5792 5790 5790 5789 5789 5790 5791 5791 5792 5789 5790 5788 5787 5784 5783 5780 5776 5773 5771 5768 5766 5765 5762 5759 5757 5754 5751 5748 5743 5740 5736 5732 5727 5722 5717 5712 5706 5700
5811 5806 5802 5797 5794 5790 5788 5786 5785 5785 5784 5785 5784 5785 5784 5784 5784 5783 5780 5776 5776 5773 5771 5767 5763 5760 5757 5755 5753 5751 5749 5746 5743 5740 5736 5733 5730 5726 5722 5718 5714 5708 5702 5697
5807 5803 5799 5795 5791 5787 5784 5783 5783 5782 5781 5779 5779 5779 5778 5778 5778 5778 5776 5772 5769 5766 5763 5759 5756 5753 5750 5748 5745 5743 5739 5736 5733 5730 5727 5724 5722 5719 5716 5712 5708 5703 5698 5693
5803 5800 5797 5793 5791 5787 5785 5783 5781 5779 5777 5776 5774 5775 5772 5772 5773 5772 5769 5767 5763 5760 5756 5752 5749 5746 5744 5741 5737 5734 5730 5727 5724 5721 5718 5715 5713 5710 5708 5704 5701 5697 5692 5688
5801 5797 5794 5791 5789 5787 5784 5782 5780 5779 5780 5776 5776 5774 5772 5770 5768 5766 5763 5760 5756 5751 5747 5744 5740 5737 5733 5730 5728 5724 5719 5716 5713 5711 5707 5704 5702 5700 5697 5695 5692 5689 5686 5682
5798 5795 5792 5789 5787 5786 5783 5781 5780 5778 5775 5773 5771 5769 5766 5765 5763 5760 5756 5751 5747 5744 5740 5737 5733 5729 5724 5720 5716 5714 5710 5705 5702 5699 5695 5692 5690 5688 5687 5684 5681 5681 5678 5675
5795 5793 5789 5787 5785 5782 5779 5779 5776 5773 5771 5769 5767 5765 5762 5759 5756 5752 5748 5743 5740 5737 5733 5728 5722 5718 5713 5709 5705 5700 5697 5694 5690 5686 5681 5678 5676 5675 5675 5674 5672 5670 5669 5667
5791 5788 5786 5783 5781 5779 5778 5776 5773 5771 5769 5767 5764 5761 5759 5755 5750 5746 5742 5736 5732 5729 5723 5719 5712 5706 5702 5698 5695 5690 5686 5682 5678 5675 5670 5667 5665 5664 5663 5661 5661 5660 5659 5657
5787 5783 5781 5779 5776 5774 5773 5772 5771 5769 5766 5763 5759 5756 5752 5747 5743 5738 5733 5728 5723 5718 5713 5708 5702 5697 5691 5687 5683 5679 5675 5672 5669 5664 5661 5656 5653 5652 5652 5650 5649 5648 5647 5646
5782 5780 5778 5775 5771 5769 5768 5767 5766 5763 5760 5756 5753 5748 5743 5739 5734 5729 5724 5719 5713 5708 5702 5697 5691 5686 5682 5677 5672 5668 5664 5660 5657 5654 5650 5647 5643 5640 5638 5637 5637 5635 5635 5633